Location: Lawrence
(38.9720°N, 95.2350°W)
Time: 01:46:37
(UTC-05:00)

JAS-1B - Visible Passes

Search period start: 07 July 2015 00:00
Search period end: 17 July 2015 00:00
Orbit: 911 x 1744 km, 99.1° (Epoch: 06 July)

Date Brightness Start Highest point End Pass type
(mag) Time Alt. Az. Time Alt. Az. Time Alt. Az.
07 Jul 7.5 00:46:01 10° N 00:53:19 62° WNW 00:55:05 46° SW visible
07 Jul 9.8 02:40:54 10° NW 02:42:14 10° NW 02:43:05 10° WNW visible
07 Jul 8.1 23:15:16 10° NE 23:21:08 28° E 23:22:03 27° ESE visible
08 Jul 8.0 01:05:17 10° N 01:12:11 44° WNW 01:14:18 34° WSW visible
08 Jul 7.7 23:33:54 10° NNE 23:40:27 40° E 23:41:16 38° ESE visible
09 Jul 8.5 01:24:40 10° N 01:30:59 32° WNW 01:33:31 24° W visible
09 Jul 7.2 23:52:42 10° NNE 23:59:39 56° E 00:00:29 53° SE visible
10 Jul 8.9 01:44:14 10° N 01:49:43 23° WNW 01:52:44 17° W visible
11 Jul 7.0 00:11:40 10° NNE 00:18:45 79° ESE 00:19:42 65° S visible
11 Jul 9.3 02:04:03 10° NNW 02:08:23 17° NW 02:11:57 10° W visible
11 Jul 8.8 22:42:38 10° NE 22:45:49 14° E 22:46:40 14° E visible
12 Jul 7.2 00:30:46 10° N 00:37:45 75° WNW 00:38:55 59° SW visible
12 Jul 9.5 02:24:32 10° NNW 02:26:59 12° NW 02:28:57 10° WNW visible
12 Jul 8.4 23:00:30 10° NE 23:05:16 21° E 23:05:52 21° E visible
13 Jul 7.6 00:49:57 10° N 00:56:40 53° WNW 00:58:07 44° WSW visible
13 Jul 7.9 23:18:54 10° NNE 23:24:38 30° E 23:25:05 30° E visible
14 Jul 8.1 01:09:16 10° N 01:15:30 38° WNW 01:17:20 31° W visible
14 Jul 7.4 23:37:35 10° NNE 23:43:53 44° E 23:44:17 43° ESE visible
15 Jul 8.6 01:28:43 10° N 01:34:17 27° WNW 01:36:32 21° W visible
15 Jul 7.0 23:56:26 10° NNE 00:03:02 63° E 00:03:29 61° ESE visible
16 Jul 9.0 01:48:24 10° NNW 01:53:00 19° WNW 01:55:44 14° W visible
